Hourly Data Report for May 31, 2012

All times are specified in Local Standard Time (LST). Add 1 hour to adjust for Daylight Saving Time where and when it is observed.

YARMOUTH A
NOVA SCOTIA

43°49'37.000" N
66°05'17.000" W
42.90 m
8206495
71603
YQI

Download Data

Hourly Data (May 2012)
Hourly Data Report for May 31, 2012
Temp Definition
°C
Dew Point Temp Definition
°C
Rel Hum Definition
%
Wind Dir Definition
10's deg

Wind Spd Definition
km/h
Visibility Definition
km
Stn Press Definition
kPa
Hmdx Definition


Wind Chill Definition


Weather Definition


TIME
00:00 Legend Double Dagger 8.9 9.1 101 27 6 0.8 100.26     Fog
01:00 Legend Double Dagger 9.1 9.3 101 35 7 0.4 100.24     Fog
02:00 Legend Double Dagger 8.7 8.9 101 2 9 0.4 100.28     Fog
03:00 Legend Double Dagger 9.5 9.8 102 6 6 0.2 100.28     Fog
04:00 Legend Double Dagger 10.6 10.9 102 9 9 0.2 100.31     Fog
05:00 Legend Double Dagger 12.0 12.3 102 11 13 0.2 100.25     Fog
06:00 Legend Double Dagger 12.8 13.1 102 14 10 0.2 100.30     Fog
07:00 Legend Double Dagger 13.0 13.3 102 14 17 0.2 100.31     Fog
08:00 Legend Double Dagger 13.8 14.1 102 12 12 0.6 100.33     Fog
09:00 Legend Double Dagger 14.1 14.4 102 12 7 4.8 100.37     Fog
10:00 Legend Double Dagger 14.4 14.6 101 14 15 10.0 100.40     LegendNANA
11:00 Legend Double Dagger 15.7 14.1 90 15 16 10.0 100.41     Cloudy
12:00 Legend Double Dagger 15.1 13.8 92 15 22 10.0 100.38     LegendNANA
13:00 Legend Double Dagger 15.7 13.9 89 14 20 10.0 100.38     LegendNANA
14:00 Legend Double Dagger 16.9 14.4 85 14 21 10.0 100.34     Cloudy
15:00 Legend Double Dagger 18.0 14.9 82 16 16 10.0 100.30     LegendNANA
16:00 Legend Double Dagger 18.5 14.5 77 13 11 10.0 100.32     LegendNANA
17:00 Legend Double Dagger 18.5 14.1 75 20 15 0.0 100.39     Mainly Clear
18:00 Legend Double Dagger 15.9 12.9 82 19 12 10.0 100.44     LegendNANA
19:00 Legend Double Dagger 13.4 12.0 91 17 14 10.0 100.50     LegendNANA
20:00 Legend Double Dagger 12.3 11.5 95 17 9 10.0 100.55     Cloudy
21:00 Legend Double Dagger 11.5 11.4 99 12 14 1.2 100.57     Fog
22:00 Legend Double Dagger 11.3 11.2 99 11 10 6.4 100.54     Fog
23:00 Legend Double Dagger 11.6 11.5 99 30 6 3.2 100.68     Fog

Notes on Data Quality.

Legend

  • E = Estimated
  • M = Missing
  • NA = Not Available
  • ‡ = Partner data that is not subject to review by the National Climate Archives
Date modified: